Time,TemperatureF,DewpointF,PressureIn,WindDirection,WindDirectionDegrees,WindSpeedMPH,WindSpeedGustMPH,Humidity,HourlyPrecipIn,Conditions,Clouds,dailyrainin,SoftwareType,DateUTC
2015-07-29 00:02:00,77.0,71.8,29.96,SE,125,0.0,0.0,84,0.00,,,0.00,meteohub,2015-07-29 04:02:00,
2015-07-29 00:07:00,76.8,72.3,29.96,SE,125,0.0,0.0,86,0.00,,,0.00,meteohub,2015-07-29 04:07:00,
2015-07-29 00:12:00,76.6,72.1,29.96,SE,125,0.0,0.0,86,0.00,,,0.00,meteohub,2015-07-29 04:12:00,
2015-07-29 00:17:00,76.5,72.3,29.96,SE,125,0.0,0.0,87,0.00,,,0.00,meteohub,2015-07-29 04:17:00,
2015-07-29 00:22:00,76.5,72.3,29.96,SE,125,1.0,0.0,87,0.00,,,0.00,meteohub,2015-07-29 04:22:00,
2015-07-29 00:27:00,76.3,72.1,29.96,SE,125,0.0,1.0,87,0.00,,,0.00,meteohub,2015-07-29 04:27:00,
2015-07-29 00:32:00,76.1,72.3,29.96,SE,125,0.0,1.0,88,0.00,,,0.00,meteohub,2015-07-29 04:32:00,
2015-07-29 00:37:00,75.9,72.1,29.96,SE,125,0.0,1.0,88,0.00,,,0.00,meteohub,2015-07-29 04:37:00,
2015-07-29 00:42:00,75.7,72.3,29.96,SE,125,0.0,0.0,89,0.00,,,0.00,meteohub,2015-07-29 04:42:00,
2015-07-29 00:47:00,75.7,72.3,29.96,SE,125,0.0,0.0,89,0.00,,,0.00,meteohub,2015-07-29 04:47:00,
2015-07-29 00:52:00,75.7,72.3,29.95,SE,125,0.0,0.0,89,0.00,,,0.00,meteohub,2015-07-29 04:52:00,
2015-07-29 00:57:00,75.6,72.1,29.95,SE,125,0.0,0.0,89,0.00,,,0.00,meteohub,2015-07-29 04:57:00,
2015-07-29 01:02:00,75.6,72.1,29.95,SE,125,0.0,0.0,89,0.00,,,0.00,meteohub,2015-07-29 05:02:00,
2015-07-29 01:07:00,75.6,72.5,29.94,SE,125,0.0,0.0,90,0.00,,,0.00,meteohub,2015-07-29 05:07:00,
2015-07-29 01:12:00,75.6,72.1,29.94,SE,125,0.0,0.0,89,0.00,,,0.00,meteohub,2015-07-29 05:12:00,
2015-07-29 01:17:00,75.4,72.3,29.94,SE,125,0.0,0.0,90,0.00,,,0.00,meteohub,2015-07-29 05:17:00,
2015-07-29 01:22:00,75.4,72.3,29.94,SE,125,0.0,0.0,90,0.00,,,0.00,meteohub,2015-07-29 05:22:00,
2015-07-29 01:27:00,75.4,72.3,29.94,SE,125,0.0,0.0,90,0.00,,,0.00,meteohub,2015-07-29 05:27:00,
2015-07-29 01:32:00,75.4,72.0,29.94,SE,125,0.0,0.0,89,0.00,,,0.00,meteohub,2015-07-29 05:32:00,
2015-07-29 01:37:00,75.6,72.1,29.94,SE,125,0.0,0.0,89,0.00,,,0.00,meteohub,2015-07-29 05:37:00,
2015-07-29 01:42:00,75.6,72.1,29.94,SE,125,0.0,0.0,89,0.00,,,0.00,meteohub,2015-07-29 05:42:00,
2015-07-29 01:47:00,75.4,72.0,29.94,SE,125,0.0,0.0,89,0.00,,,0.00,meteohub,2015-07-29 05:47:00,
2015-07-29 01:52:00,75.4,72.0,29.94,SE,125,0.0,0.0,89,0.00,,,0.00,meteohub,2015-07-29 05:52:00,
2015-07-29 02:02:00,75.0,72.0,29.93,SE,125,0.0,0.0,90,0.00,,,0.00,meteohub,2015-07-29 06:02:00,
2015-07-29 02:07:00,75.0,72.0,29.93,SE,125,0.0,0.0,90,0.00,,,0.00,meteohub,2015-07-29 06:07:00,
2015-07-29 02:12:00,74.8,71.8,29.93,SE,125,0.0,0.0,90,0.00,,,0.00,meteohub,2015-07-29 06:12:00,
2015-07-29 02:17:00,74.7,71.8,29.93,SE,125,0.0,0.0,91,0.00,,,0.00,meteohub,2015-07-29 06:17:00,
2015-07-29 02:22:00,74.7,71.8,29.93,SE,125,0.0,1.0,91,0.00,,,0.00,meteohub,2015-07-29 06:22:00,
2015-07-29 02:27:00,74.7,71.6,29.93,SE,125,0.0,1.0,90,0.00,,,0.00,meteohub,2015-07-29 06:27:00,
2015-07-29 02:32:00,74.7,71.8,29.93,SE,125,0.0,1.0,91,0.00,,,0.00,meteohub,2015-07-29 06:32:00,
2015-07-29 02:37:00,74.5,71.6,29.93,SE,125,1.0,0.0,91,0.00,,,0.00,meteohub,2015-07-29 06:37:00,
2015-07-29 02:42:00,74.3,71.4,29.93,SE,125,0.0,1.0,91,0.00,,,0.00,meteohub,2015-07-29 06:42:00,
2015-07-29 02:47:00,74.1,71.2,29.92,SE,125,0.0,1.0,91,0.00,,,0.00,meteohub,2015-07-29 06:47:00,
2015-07-29 02:52:00,73.9,71.1,29.92,SE,125,0.0,1.0,91,0.00,,,0.00,meteohub,2015-07-29 06:52:00,
2015-07-29 02:57:00,73.9,71.4,29.92,SE,125,0.0,1.0,92,0.00,,,0.00,meteohub,2015-07-29 06:57:00,
2015-07-29 03:02:00,73.8,71.2,29.92,SE,125,0.0,1.0,92,0.00,,,0.00,meteohub,2015-07-29 07:02:00,
2015-07-29 03:07:00,73.8,71.2,29.92,SE,125,0.0,1.0,92,0.00,,,0.00,meteohub,2015-07-29 07:07:00,
2015-07-29 03:12:00,73.8,71.2,29.92,SE,125,0.0,1.0,92,0.00,,,0.00,meteohub,2015-07-29 07:12:00,
2015-07-29 03:17:00,73.8,71.2,29.92,SE,125,0.0,0.0,92,0.00,,,0.00,meteohub,2015-07-29 07:17:00,
2015-07-29 03:22:00,73.8,71.6,29.92,SE,125,0.0,0.0,93,0.00,,,0.00,meteohub,2015-07-29 07:22:00,
2015-07-29 03:27:00,73.6,71.4,29.92,SE,125,0.0,0.0,93,0.00,,,0.00,meteohub,2015-07-29 07:27:00,
2015-07-29 03:32:00,73.6,71.4,29.92,SE,125,0.0,0.0,93,0.00,,,0.00,meteohub,2015-07-29 07:32:00,
2015-07-29 03:37:00,73.6,71.4,29.92,SE,125,0.0,0.0,93,0.00,,,0.00,meteohub,2015-07-29 07:37:00,
2015-07-29 03:42:00,73.6,71.4,29.92,SE,125,0.0,0.0,93,0.00,,,0.00,meteohub,2015-07-29 07:42:00,
2015-07-29 03:47:00,73.6,71.4,29.91,SE,125,0.0,0.0,93,0.00,,,0.00,meteohub,2015-07-29 07:47:00,
2015-07-29 03:52:00,73.6,71.4,29.91,SE,125,0.0,0.0,93,0.00,,,0.00,meteohub,2015-07-29 07:52:00,
2015-07-29 03:57:00,73.4,71.2,29.91,SE,125,0.0,0.0,93,0.00,,,0.00,meteohub,2015-07-29 07:57:00,
2015-07-29 04:02:00,73.4,71.2,29.91,SE,125,0.0,0.0,93,0.00,,,0.00,meteohub,2015-07-29 08:02:00,
2015-07-29 04:07:00,73.4,71.2,29.91,SE,125,0.0,0.0,93,0.00,,,0.00,meteohub,2015-07-29 08:07:00,
2015-07-29 04:12:00,73.4,71.2,29.92,SE,125,0.0,1.0,93,0.00,,,0.00,meteohub,2015-07-29 08:12:00,
2015-07-29 04:17:00,73.4,71.2,29.92,SE,125,0.0,1.0,93,0.00,,,0.00,meteohub,2015-07-29 08:17:00,
2015-07-29 04:22:00,73.4,71.2,29.92,SE,125,0.0,1.0,93,0.00,,,0.00,meteohub,2015-07-29 08:22:00,
2015-07-29 04:27:00,73.4,71.2,29.92,SE,125,0.0,0.0,93,0.00,,,0.00,meteohub,2015-07-29 08:27:00,
2015-07-29 04:32:00,73.4,71.2,29.92,SE,125,0.0,0.0,93,0.00,,,0.00,meteohub,2015-07-29 08:32:00,
2015-07-29 04:37:00,73.4,71.2,29.92,SE,125,0.0,1.0,93,0.00,,,0.00,meteohub,2015-07-29 08:37:00,
2015-07-29 04:42:00,73.4,71.2,29.93,SE,125,0.0,1.0,93,0.00,,,0.00,meteohub,2015-07-29 08:42:00,
2015-07-29 04:47:00,73.4,71.6,29.92,SE,125,0.0,1.0,94,0.00,,,0.00,meteohub,2015-07-29 08:47:00,
2015-07-29 04:52:00,73.2,71.4,29.92,SE,125,0.0,0.0,94,0.00,,,0.00,meteohub,2015-07-29 08:52:00,
2015-07-29 04:57:00,73.2,71.4,29.93,SE,125,0.0,0.0,94,0.00,,,0.00,meteohub,2015-07-29 08:57:00,
2015-07-29 05:02:00,73.2,71.4,29.93,SE,125,0.0,0.0,94,0.00,,,0.00,meteohub,2015-07-29 09:02:00,
2015-07-29 05:07:00,73.2,71.4,29.93,SE,125,0.0,0.0,94,0.00,,,0.00,meteohub,2015-07-29 09:07:00,
2015-07-29 05:12:00,73.2,71.4,29.93,SE,125,0.0,0.0,94,0.00,,,0.00,meteohub,2015-07-29 09:12:00,
2015-07-29 05:17:00,73.0,71.2,29.93,SE,125,0.0,0.0,94,0.00,,,0.00,meteohub,2015-07-29 09:17:00,
2015-07-29 05:22:00,73.0,71.2,29.93,SE,125,0.0,0.0,94,0.00,,,0.00,meteohub,2015-07-29 09:22:00,
2015-07-29 05:27:00,72.9,70.7,29.92,SE,125,0.0,0.0,93,0.00,,,0.00,meteohub,2015-07-29 09:27:00,
2015-07-29 05:32:00,72.9,71.1,29.93,SE,125,0.0,0.0,94,0.00,,,0.00,meteohub,2015-07-29 09:32:00,
2015-07-29 05:37:00,72.7,70.9,29.93,SE,125,0.0,0.0,94,0.00,,,0.00,meteohub,2015-07-29 09:37:00,
2015-07-29 05:42:00,72.3,70.5,29.93,SE,125,0.0,1.0,94,0.00,,,0.00,meteohub,2015-07-29 09:42:00,
2015-07-29 05:47:00,72.3,70.5,29.93,SE,125,0.0,1.0,94,0.00,,,0.00,meteohub,2015-07-29 09:47:00,
2015-07-29 05:52:00,72.1,70.3,29.93,SE,125,0.0,1.0,94,0.00,,,0.00,meteohub,2015-07-29 09:52:00,
2015-07-29 05:57:00,72.0,70.2,29.93,SE,125,1.0,0.0,94,0.00,,,0.00,meteohub,2015-07-29 09:57:00,
2015-07-29 06:02:00,72.0,70.2,29.93,SE,125,0.0,1.0,94,0.00,,,0.00,meteohub,2015-07-29 10:02:00,
2015-07-29 06:07:00,71.8,70.0,29.93,SE,125,0.0,1.0,94,0.00,,,0.00,meteohub,2015-07-29 10:07:00,
2015-07-29 06:12:00,71.6,70.2,29.93,SE,125,0.0,1.0,95,0.00,,,0.00,meteohub,2015-07-29 10:12:00,
2015-07-29 06:17:00,71.4,70.0,29.93,SE,125,0.0,0.0,95,0.00,,,0.00,meteohub,2015-07-29 10:17:00,
2015-07-29 06:22:00,71.4,70.0,29.93,SE,125,0.0,0.0,95,0.00,,,0.00,meteohub,2015-07-29 10:22:00,
2015-07-29 06:27:00,71.4,70.0,29.93,SE,125,0.0,0.0,95,0.00,,,0.00,meteohub,2015-07-29 10:27:00,
2015-07-29 06:32:00,71.2,70.0,29.93,SE,125,0.0,0.0,96,0.00,,,0.00,meteohub,2015-07-29 10:32:00,
2015-07-29 06:37:00,71.2,70.0,29.93,SE,125,0.0,0.0,96,0.00,,,0.00,meteohub,2015-07-29 10:37:00,
2015-07-29 06:43:00,71.2,70.0,29.93,SE,125,0.0,0.0,96,0.00,,,0.00,meteohub,2015-07-29 10:43:00,
2015-07-29 06:48:00,71.2,70.0,29.94,SE,125,0.0,0.0,96,0.00,,,0.00,meteohub,2015-07-29 10:48:00,
2015-07-29 06:53:00,71.4,70.2,29.94,SE,125,0.0,0.0,96,0.00,,,0.00,meteohub,2015-07-29 10:53:00,
2015-07-29 06:58:00,71.2,70.0,29.94,SE,125,0.0,0.0,96,0.00,,,0.00,meteohub,2015-07-29 10:58:00,
2015-07-29 07:03:00,71.4,70.2,29.94,SE,125,0.0,0.0,96,0.00,,,0.00,meteohub,2015-07-29 11:03:00,
2015-07-29 07:08:00,71.4,70.2,29.94,SE,125,0.0,0.0,96,0.00,,,0.00,meteohub,2015-07-29 11:08:00,
2015-07-29 07:14:00,71.4,70.2,29.94,SE,125,0.0,0.0,96,0.00,,,0.00,meteohub,2015-07-29 11:14:00,
2015-07-29 07:19:00,71.8,70.9,29.94,SE,125,0.0,0.0,97,0.00,,,0.00,meteohub,2015-07-29 11:19:00,
2015-07-29 07:24:00,72.0,71.1,29.94,SE,125,0.0,0.0,97,0.00,,,0.00,meteohub,2015-07-29 11:24:00,
2015-07-29 07:29:00,72.1,71.2,29.94,SE,125,0.0,0.0,97,0.00,,,0.00,meteohub,2015-07-29 11:29:00,
2015-07-29 07:34:00,72.3,71.4,29.94,SE,125,0.0,0.0,97,0.00,,,0.00,meteohub,2015-07-29 11:34:00,
2015-07-29 07:39:00,72.7,71.8,29.94,SE,125,1.0,0.0,97,0.00,,,0.00,meteohub,2015-07-29 11:39:00,
2015-07-29 07:44:00,73.0,71.8,29.94,South,179,0.0,1.0,96,0.00,,,0.00,meteohub,2015-07-29 11:44:00,
2015-07-29 07:50:00,73.2,72.0,29.95,South,180,2.0,2.0,96,0.00,,,0.00,meteohub,2015-07-29 11:50:00,
2015-07-29 07:55:00,73.8,72.5,29.95,SSW,204,1.0,2.0,96,0.00,,,0.00,meteohub,2015-07-29 11:55:00,
2015-07-29 08:00:00,74.1,72.7,29.95,SSW,213,1.0,3.0,95,0.00,,,0.00,meteohub,2015-07-29 12:00:00,
2015-07-29 08:05:00,74.5,73.0,29.95,South,180,1.0,3.0,95,0.00,,,0.00,meteohub,2015-07-29 12:05:00,
2015-07-29 08:10:00,74.8,73.0,29.95,SW,215,2.0,3.0,94,0.00,,,0.00,meteohub,2015-07-29 12:10:00,
2015-07-29 08:15:00,75.2,73.4,29.95,SSW,213,0.0,3.0,94,0.00,,,0.00,meteohub,2015-07-29 12:15:00,
2015-07-29 08:21:00,75.6,73.4,29.95,SW,225,0.0,3.0,93,0.00,,,0.00,meteohub,2015-07-29 12:21:00,
2015-07-29 08:26:00,75.7,73.2,29.95,SW,222,2.0,3.0,92,0.00,,,0.00,meteohub,2015-07-29 12:26:00,
2015-07-29 08:31:00,75.9,73.4,29.96,SSW,213,1.0,3.0,92,0.00,,,0.00,meteohub,2015-07-29 12:31:00,
2015-07-29 08:36:00,76.5,73.6,29.96,SW,225,1.0,3.0,91,0.00,,,0.00,meteohub,2015-07-29 12:36:00,
2015-07-29 08:41:00,76.5,73.6,29.95,SW,217,2.0,3.0,91,0.00,,,0.00,meteohub,2015-07-29 12:41:00,
2015-07-29 08:46:00,76.6,73.8,29.95,South,176,0.0,3.0,91,0.00,,,0.00,meteohub,2015-07-29 12:46:00,
2015-07-29 08:52:00,76.8,73.6,29.95,SW,221,1.0,3.0,90,0.00,,,0.00,meteohub,2015-07-29 12:52:00,
2015-07-29 08:57:00,77.2,73.9,29.95,SW,220,0.0,3.0,90,0.00,,,0.00,meteohub,2015-07-29 12:57:00,
2015-07-29 09:02:00,77.4,74.1,29.95,SSW,198,2.0,3.0,90,0.00,,,0.00,meteohub,2015-07-29 13:02:00,
2015-07-29 09:07:00,77.7,74.3,29.95,SSW,200,2.0,3.0,89,0.00,,,0.00,meteohub,2015-07-29 13:07:00,
2015-07-29 09:12:00,78.3,74.5,29.96,SW,219,2.0,3.0,88,0.00,,,0.00,meteohub,2015-07-29 13:12:00,
2015-07-29 09:17:00,78.6,74.8,29.96,SW,220,1.0,3.0,88,0.00,,,0.00,meteohub,2015-07-29 13:17:00,
2015-07-29 09:22:00,79.0,74.8,29.96,SW,221,2.0,3.0,87,0.00,,,0.00,meteohub,2015-07-29 13:22:00,
2015-07-29 09:27:00,79.3,75.2,29.95,SSW,212,1.0,3.0,87,0.00,,,0.00,meteohub,2015-07-29 13:27:00,
2015-07-29 09:32:00,79.7,75.2,29.96,SW,229,0.0,3.0,86,0.00,,,0.00,meteohub,2015-07-29 13:32:00,
2015-07-29 09:37:00,80.1,75.2,29.95,SW,221,3.0,3.0,85,0.00,,,0.00,meteohub,2015-07-29 13:37:00,
2015-07-29 09:42:00,80.4,75.2,29.95,SSW,196,1.0,3.0,84,0.00,,,0.00,meteohub,2015-07-29 13:42:00,
2015-07-29 09:47:00,81.0,75.4,29.95,SSW,211,0.0,3.0,83,0.00,,,0.00,meteohub,2015-07-29 13:47:00,
2015-07-29 09:52:00,81.7,75.2,29.95,SSW,207,1.0,3.0,81,0.00,,,0.00,meteohub,2015-07-29 13:52:00,
2015-07-29 09:57:00,82.2,75.0,29.95,SSW,193,2.0,3.0,79,0.00,,,0.00,meteohub,2015-07-29 13:57:00,
2015-07-29 10:02:00,82.6,74.7,29.95,SW,217,0.0,3.0,77,0.00,,,0.00,meteohub,2015-07-29 14:02:00,
2015-07-29 10:07:00,82.8,74.8,29.95,SSW,205,2.0,3.0,77,0.00,,,0.00,meteohub,2015-07-29 14:07:00,
2015-07-29 10:12:00,83.3,75.0,29.95,SSW,207,0.0,3.0,76,0.00,,,0.00,meteohub,2015-07-29 14:12:00,
2015-07-29 10:17:00,83.7,75.7,29.95,SW,236,1.0,3.0,77,0.00,,,0.00,meteohub,2015-07-29 14:17:00,
2015-07-29 10:22:00,84.0,75.2,29.95,SSW,204,2.0,5.0,75,0.00,,,0.00,meteohub,2015-07-29 14:22:00,
2015-07-29 10:27:00,84.4,75.6,29.95,SSW,205,3.0,5.0,75,0.00,,,0.00,meteohub,2015-07-29 14:27:00,
2015-07-29 10:32:00,84.7,74.7,29.95,SW,217,0.0,5.0,72,0.00,,,0.00,meteohub,2015-07-29 14:32:00,
2015-07-29 10:37:00,84.7,75.2,29.94,ESE,123,2.0,4.0,73,0.00,,,0.00,meteohub,2015-07-29 14:37:00,
2015-07-29 10:42:00,85.5,74.5,29.94,SW,236,3.0,4.0,70,0.00,,,0.00,meteohub,2015-07-29 14:42:00,
2015-07-29 10:47:00,85.8,74.8,29.94,South,183,2.0,4.0,70,0.00,,,0.00,meteohub,2015-07-29 14:47:00,
2015-07-29 10:52:00,86.4,74.1,29.95,WNW,284,2.0,4.0,67,0.00,,,0.00,meteohub,2015-07-29 14:52:00,
2015-07-29 10:58:00,86.2,74.8,29.95,SW,223,3.0,4.0,69,0.00,,,0.00,meteohub,2015-07-29 14:58:00,
2015-07-29 11:03:00,86.2,74.8,29.95,South,190,2.0,3.0,69,0.00,,,0.00,meteohub,2015-07-29 15:03:00,
2015-07-29 11:08:00,86.4,75.0,29.95,SW,217,1.0,6.0,69,0.00,,,0.00,meteohub,2015-07-29 15:08:00,
2015-07-29 11:13:00,86.5,75.9,29.95,WSW,258,1.0,6.0,71,0.00,,,0.00,meteohub,2015-07-29 15:13:00,
2015-07-29 11:18:00,86.4,75.0,29.95,West,261,1.0,6.0,69,0.00,,,0.00,meteohub,2015-07-29 15:18:00,
2015-07-29 11:23:00,86.5,75.2,29.95,West,268,1.0,5.0,69,0.00,,,0.00,meteohub,2015-07-29 15:23:00,
2015-07-29 11:29:00,86.9,75.9,29.95,SSW,208,1.0,5.0,70,0.00,,,0.00,meteohub,2015-07-29 15:29:00,
2015-07-29 11:34:00,87.3,75.4,29.94,West,280,2.0,5.0,68,0.00,,,0.00,meteohub,2015-07-29 15:34:00,
2015-07-29 11:39:00,86.7,74.5,29.95,West,279,0.0,3.0,67,0.00,,,0.00,meteohub,2015-07-29 15:39:00,
2015-07-29 11:44:00,86.7,74.8,29.95,SW,229,3.0,3.0,68,0.00,,,0.00,meteohub,2015-07-29 15:44:00,
2015-07-29 11:49:00,87.1,73.9,29.94,SW,228,2.0,3.0,65,0.00,,,0.00,meteohub,2015-07-29 15:49:00,
2015-07-29 11:54:00,87.3,76.3,29.94,SW,229,0.0,4.0,70,0.00,,,0.00,meteohub,2015-07-29 15:54:00,
2015-07-29 11:59:00,87.3,74.5,29.94,West,262,2.0,4.0,66,0.00,,,0.00,meteohub,2015-07-29 15:59:00,
2015-07-29 12:05:00,87.4,73.8,29.94,SSW,205,1.0,6.0,64,0.00,,,0.00,meteohub,2015-07-29 16:05:00,
2015-07-29 12:10:00,87.6,75.4,29.94,SW,234,0.0,6.0,67,0.00,,,0.00,meteohub,2015-07-29 16:10:00,
2015-07-29 12:15:00,87.4,74.7,29.94,WSW,256,0.0,6.0,66,0.00,,,0.00,meteohub,2015-07-29 16:15:00,
2015-07-29 12:20:00,87.8,74.1,29.94,WSW,243,0.0,4.0,64,0.00,,,0.00,meteohub,2015-07-29 16:20:00,
2015-07-29 12:25:00,88.2,75.4,29.93,SSE,153,0.0,4.0,66,0.00,,,0.00,meteohub,2015-07-29 16:25:00,
2015-07-29 12:30:00,88.3,75.0,29.93,SSE,147,3.0,3.0,65,0.00,,,0.00,meteohub,2015-07-29 16:30:00,
2015-07-29 12:36:00,88.3,75.0,29.93,WNW,287,2.0,6.0,65,0.00,,,0.00,meteohub,2015-07-29 16:36:00,
2015-07-29 12:46:00,88.9,75.2,29.93,SSW,211,0.0,6.0,64,0.00,,,0.00,meteohub,2015-07-29 16:46:00,
2015-07-29 12:51:00,88.9,76.5,29.93,WNW,296,0.0,4.0,67,0.00,,,0.00,meteohub,2015-07-29 16:51:00,
2015-07-29 12:56:00,88.3,75.9,29.93,SW,219,1.0,4.0,67,0.00,,,0.00,meteohub,2015-07-29 16:56:00,
2015-07-29 13:01:00,88.2,75.4,29.93,WNW,286,1.0,5.0,66,0.00,,,0.00,meteohub,2015-07-29 17:01:00,
2015-07-29 13:07:00,88.0,77.0,29.93,WSW,238,1.0,5.0,70,0.00,,,0.00,meteohub,2015-07-29 17:07:00,
2015-07-29 13:12:00,88.2,73.9,29.92,SSE,165,2.0,5.0,63,0.00,,,0.00,meteohub,2015-07-29 17:12:00,
2015-07-29 13:17:00,88.9,74.1,29.92,SSW,199,2.0,4.0,62,0.00,,,0.00,meteohub,2015-07-29 17:17:00,
2015-07-29 13:22:00,89.4,74.7,29.92,ESE,115,3.0,4.0,62,0.00,,,0.00,meteohub,2015-07-29 17:22:00,
2015-07-29 13:27:00,90.3,74.5,29.92,ESE,118,3.0,5.0,60,0.00,,,0.00,meteohub,2015-07-29 17:27:00,
2015-07-29 13:32:00,91.0,76.3,29.92,SSW,200,1.0,5.0,62,0.00,,,0.00,meteohub,2015-07-29 17:32:00,
2015-07-29 13:37:00,91.0,74.7,29.92,SSE,168,4.0,8.0,59,0.00,,,0.00,meteohub,2015-07-29 17:37:00,
2015-07-29 13:42:00,91.6,75.7,29.92,West,259,1.0,8.0,60,0.00,,,0.00,meteohub,2015-07-29 17:42:00,
2015-07-29 13:47:00,91.4,77.0,29.92,SW,220,4.0,8.0,63,0.00,,,0.00,meteohub,2015-07-29 17:47:00,
2015-07-29 13:52:00,91.2,74.8,29.92,SW,223,2.0,7.0,59,0.00,,,0.00,meteohub,2015-07-29 17:52:00,
2015-07-29 13:57:00,90.7,74.3,29.92,ESE,115,0.0,7.0,59,0.00,,,0.00,meteohub,2015-07-29 17:57:00,
2015-07-29 14:02:00,90.9,74.5,29.92,West,280,2.0,7.0,59,0.00,,,0.00,meteohub,2015-07-29 18:02:00,
2015-07-29 14:07:00,91.0,76.6,29.92,East,98,3.0,6.0,63,0.00,,,0.00,meteohub,2015-07-29 18:07:00,
2015-07-29 14:12:00,90.9,74.1,29.92,ESE,121,2.0,5.0,58,0.00,,,0.00,meteohub,2015-07-29 18:12:00,
2015-07-29 14:17:00,91.0,74.7,29.92,SSW,209,2.0,5.0,59,0.00,,,0.00,meteohub,2015-07-29 18:17:00,
2015-07-29 14:23:00,91.0,74.1,29.91,West,273,2.0,5.0,58,0.00,,,0.00,meteohub,2015-07-29 18:23:00,
2015-07-29 14:28:00,90.3,74.1,29.91,SSE,153,5.0,5.0,59,0.00,,,0.00,meteohub,2015-07-29 18:28:00,
2015-07-29 14:38:00,90.9,75.0,29.91,SSW,213,3.0,5.0,60,0.00,,,0.00,meteohub,2015-07-29 18:38:00,
2015-07-29 14:43:00,91.2,75.4,29.91,WSW,244,4.0,5.0,60,0.00,,,0.00,meteohub,2015-07-29 18:43:00,
2015-07-29 14:48:00,91.6,74.1,29.90,SSW,207,0.0,5.0,57,0.00,,,0.00,meteohub,2015-07-29 18:48:00,
2015-07-29 14:53:00,91.9,75.6,29.90,SW,217,3.0,5.0,59,0.00,,,0.00,meteohub,2015-07-29 18:53:00,
2015-07-29 14:59:00,92.1,74.7,29.90,SW,221,2.0,5.0,57,0.00,,,0.00,meteohub,2015-07-29 18:59:00,
2015-07-29 15:04:00,92.1,75.2,29.89,SSW,202,3.0,8.0,58,0.00,,,0.00,meteohub,2015-07-29 19:04:00,
2015-07-29 15:09:00,92.7,75.2,29.89,SE,146,5.0,8.0,57,0.00,,,0.00,meteohub,2015-07-29 19:09:00,
2015-07-29 15:14:00,92.7,74.7,29.89,SW,216,4.0,8.0,56,0.00,,,0.00,meteohub,2015-07-29 19:14:00,
2015-07-29 15:19:00,91.8,74.8,29.88,South,184,1.0,9.0,58,0.00,,,0.00,meteohub,2015-07-29 19:19:00,
2015-07-29 15:24:00,91.4,74.5,29.88,South,170,0.0,9.0,58,0.00,,,0.00,meteohub,2015-07-29 19:24:00,